When you browse on this site, cookies collect data to enhance your experience and personalize the content and advertising you see.
Visit our Privacy Policy to learn more. By continuing to use the site, you agree to this use of cookies and data.
  • en France
  • Liste des pays
  • À 7 jours
  • Température de l'eau
  • Carte météo
  • Widgets météo
  • user-avatar
    Se connecter

    Météo par heure à Wucheng

    Ce jour, 15 Septembre, Dimanche

    Heure Température Précipitation Vent Pression Humidité
    00:00 +25°C° 0 mm 1 m/s 738 mmHg 89%
    01:00 +25°C° 0 mm 1 m/s 738 mmHg 91%
    02:00 +25°C° 0 mm 1 m/s 737 mmHg 92%
    03:00 +24°C° 0 mm 1 m/s 737 mmHg 93%
    04:00 +24°C° 0 mm 1 m/s 737 mmHg 94%
    05:00 +24°C° 0 mm 1 m/s 737 mmHg 95%
    06:00 +25°C° 0 mm 1 m/s 738 mmHg 91%
    07:00 +26°C° 0 mm 1 m/s 738 mmHg 86%
    08:00 +28°C° 0 mm 1 m/s 739 mmHg 81%
    09:00 +29°C° 0 mm 1 m/s 739 mmHg 75%
    10:00 +30°C° 0 mm 1 m/s 738 mmHg 70%
    11:00 +32°C° 0 mm 1 m/s 738 mmHg 64%
    12:00 +33°C° 0.1 mm 1 m/s 738 mmHg 61%
    13:00 +33°C° 0.1 mm 1 m/s 737 mmHg 59%
    14:00 +34°C° 0.1 mm 1 m/s 736 mmHg 56%
    15:00 +33°C° 0.7 mm 1 m/s 736 mmHg 65%
    16:00 +31°C° 0.7 mm 1 m/s 736 mmHg 74%
    17:00 +30°C° 0.7 mm 1 m/s 736 mmHg 83%
    18:00 +28°C° 0.2 mm 1 m/s 737 mmHg 87%
    19:00 +27°C° 0.2 mm 1 m/s 737 mmHg 90%
    20:00 +26°C° 0.2 mm 1 m/s 737 mmHg 94%
    21:00 +25°C° 0 mm 1 m/s 737 mmHg 95%
    22:00 +25°C° 0 mm 1 m/s 738 mmHg 96%
    23:00 +25°C° 0 mm 1 m/s 738 mmHg 97%

    Demain, 16 Septembre, Lundi

    Heure Température Précipitation Vent Pression Humidité
    00:00 +24°C° 0 mm 1 m/s 738 mmHg 97%
    01:00 +24°C° 0 mm 1 m/s 738 mmHg 97%
    02:00 +24°C° 0 mm 1 m/s 737 mmHg 98%
    03:00 +24°C° 0 mm 1 m/s 737 mmHg 98%
    04:00 +24°C° 0 mm 1 m/s 738 mmHg 98%
    05:00 +24°C° 0 mm 1 m/s 738 mmHg 98%
    06:00 +24°C° 0 mm 1 m/s 738 mmHg 96%
    07:00 +25°C° 0 mm 1 m/s 739 mmHg 94%
    08:00 +25°C° 0 mm 2 m/s 739 mmHg 92%
    09:00 +27°C° 0 mm 2 m/s 739 mmHg 80%
    10:00 +28°C° 0 mm 2 m/s 739 mmHg 68%
    11:00 +30°C° 0 mm 2 m/s 739 mmHg 56%
    12:00 +30°C° 0 mm 2 m/s 738 mmHg 52%
    13:00 +31°C° 0 mm 2 m/s 738 mmHg 49%
    14:00 +31°C° 0 mm 3 m/s 737 mmHg 45%
    15:00 +30°C° 0 mm 2 m/s 737 mmHg 51%
    16:00 +29°C° 0 mm 2 m/s 737 mmHg 56%
    17:00 +29°C° 0 mm 2 m/s 737 mmHg 61%
    18:00 +27°C° 0 mm 2 m/s 737 mmHg 66%
    19:00 +25°C° 0 mm 1 m/s 738 mmHg 71%
    20:00 +24°C° 0 mm 1 m/s 738 mmHg 76%
    21:00 +23°C° 0 mm 1 m/s 738 mmHg 76%
    22:00 +22°C° 0 mm 1 m/s 738 mmHg 77%
    23:00 +22°C° 0 mm 1 m/s 739 mmHg 77%

    Après-demain, 17 Septembre, Mardi

    Heure Température Précipitation Vent Pression Humidité
    00:00 +21°C° 0 mm 1 m/s 738 mmHg 78%
    01:00 +21°C° 0 mm 1 m/s 738 mmHg 79%
    02:00 +21°C° 0 mm 1 m/s 738 mmHg 80%
    03:00 +21°C° 0 mm 1 m/s 738 mmHg 82%
    04:00 +20°C° 0 mm 1 m/s 739 mmHg 84%
    05:00 +20°C° 0 mm 1 m/s 739 mmHg 86%
    06:00 +21°C° 0 mm 1 m/s 739 mmHg 81%
    07:00 +23°C° 0 mm 1 m/s 740 mmHg 77%
    08:00 +24°C° 0 mm 1 m/s 740 mmHg 72%
    09:00 +26°C° 0 mm 1 m/s 740 mmHg 64%
    10:00 +28°C° 0 mm 2 m/s 740 mmHg 57%
    11:00 +30°C° 0 mm 2 m/s 740 mmHg 50%
    12:00 +30°C° 0 mm 2 m/s 740 mmHg 48%
    13:00 +31°C° 0 mm 2 m/s 739 mmHg 47%
    14:00 +32°C° 0 mm 2 m/s 739 mmHg 46%
    15:00 +31°C° 0 mm 2 m/s 739 mmHg 51%
    16:00 +30°C° 0 mm 2 m/s 739 mmHg 57%
    17:00 +29°C° 0 mm 2 m/s 739 mmHg 62%
    18:00 +27°C° 0 mm 1 m/s 739 mmHg 67%
    19:00 +25°C° 0 mm 1 m/s 740 mmHg 73%
    20:00 +24°C° 0 mm 1 m/s 740 mmHg 79%
    21:00 +23°C° 0 mm 1 m/s 740 mmHg 80%
    22:00 +23°C° 0 mm 1 m/s 741 mmHg 81%
    23:00 +20°C° 0 mm 0 m/s 741 mmHg 83%

    18 Septembre, Mercredi

    Heure Température Précipitation Vent Pression Humidité
    00:00 +20°C° 0 mm 0 m/s 741 mmHg 84%
    01:00 +21°C° 0 mm 1 m/s 740 mmHg 86%
    02:00 +21°C° 0 mm 1 m/s 740 mmHg 88%
    03:00 +21°C° 0 mm 1 m/s 740 mmHg 89%
    04:00 +20°C° 0 mm 1 m/s 741 mmHg 91%
    05:00 +20°C° 0 mm 1 m/s 741 mmHg 93%
    06:00 +21°C° 0 mm 1 m/s 741 mmHg 89%
    07:00 +23°C° 0 mm 1 m/s 742 mmHg 84%
    08:00 +24°C° 0 mm 2 m/s 742 mmHg 80%
    09:00 +25°C° 0 mm 2 m/s 742 mmHg 69%
    10:00 +27°C° 0 mm 3 m/s 743 mmHg 59%
    11:00 +29°C° 0 mm 3 m/s 743 mmHg 48%
    12:00 +29°C° 0 mm 4 m/s 742 mmHg 45%
    13:00 +30°C° 0 mm 4 m/s 742 mmHg 42%
    14:00 +30°C° 0 mm 4 m/s 741 mmHg 39%
    15:00 +29°C° 0 mm 4 m/s 741 mmHg 45%
    16:00 +28°C° 0 mm 3 m/s 741 mmHg 50%
    17:00 +27°C° 0 mm 3 m/s 741 mmHg 56%
    18:00 +25°C° 0 mm 2 m/s 742 mmHg 62%
    19:00 +23°C° 0 mm 2 m/s 742 mmHg 68%
    20:00 +22°C° 0 mm 1 m/s 742 mmHg 73%
    21:00 +21°C° 0 mm 1 m/s 742 mmHg 75%
    22:00 +21°C° 0 mm 1 m/s 742 mmHg 77%
    23:00 +20°C° 0 mm 1 m/s 742 mmHg 79%

    19 Septembre, Jeudi

    Heure Température Précipitation Vent Pression Humidité
    00:00 +20°C° 0 mm 1 m/s 742 mmHg 82%
    01:00 +20°C° 0 mm 1 m/s 742 mmHg 85%
    02:00 +19°C° 0 mm 1 m/s 741 mmHg 88%
    03:00 +19°C° 0 mm 1 m/s 741 mmHg 90%
    04:00 +18°C° 0 mm 1 m/s 741 mmHg 92%
    05:00 +18°C° 0 mm 1 m/s 741 mmHg 94%
    06:00 +19°C° 0 mm 1 m/s 742 mmHg 89%
    07:00 +21°C° 0 mm 1 m/s 742 mmHg 85%
    08:00 +21°C° 0 mm 2 m/s 742 mmHg 81%
    09:00 +23°C° 0 mm 2 m/s 742 mmHg 72%
    10:00 +25°C° 0 mm 2 m/s 742 mmHg 63%
    11:00 +27°C° 0 mm 3 m/s 742 mmHg 54%
    12:00 +27°C° 0 mm 3 m/s 741 mmHg 50%
    13:00 +28°C° 0 mm 3 m/s 741 mmHg 47%
    14:00 +29°C° 0 mm 3 m/s 740 mmHg 43%
    15:00 +28°C° 0 mm 2 m/s 740 mmHg 48%
    16:00 +27°C° 0 mm 2 m/s 740 mmHg 52%
    17:00 +26°C° 0 mm 2 m/s 739 mmHg 57%
    18:00 +24°C° 0 mm 1 m/s 740 mmHg 63%
    19:00 +22°C° 0 mm 1 m/s 740 mmHg 70%
    20:00 +20°C° 0 mm 1 m/s 740 mmHg 76%
    21:00 +20°C° 0 mm 1 m/s 740 mmHg 79%
    22:00 +19°C° 0 mm 1 m/s 740 mmHg 81%
    23:00 +17°C° 0 mm 0 m/s 740 mmHg 84%

    20 Septembre, Vendredi

    Heure Température Précipitation Vent Pression Humidité
    00:00 +18°C° 0 mm 1 m/s 740 mmHg 86%
    01:00 +18°C° 0 mm 1 m/s 740 mmHg 89%
    02:00 +16°C° 0 mm 1 m/s 740 mmHg 91%
    03:00 +16°C° 0 mm 1 m/s 740 mmHg 92%
    04:00 +16°C° 0 mm 1 m/s 739 mmHg 94%
    05:00 +16°C° 0 mm 1 m/s 739 mmHg 95%
    06:00 +18°C° 0 mm 1 m/s 740 mmHg 89%
    07:00 +19°C° 0 mm 1 m/s 740 mmHg 83%
    08:00 +21°C° 0 mm 1 m/s 740 mmHg 77%
    09:00 +23°C° 0 mm 1 m/s 740 mmHg 69%
    10:00 +24°C° 0 mm 2 m/s 740 mmHg 62%
    11:00 +26°C° 0 mm 2 m/s 740 mmHg 54%
    12:00 +27°C° 0 mm 2 m/s 739 mmHg 50%
    13:00 +28°C° 0 mm 2 m/s 739 mmHg 47%
    14:00 +28°C° 0 mm 2 m/s 738 mmHg 43%
    15:00 +27°C° 0 mm 2 m/s 739 mmHg 49%
    16:00 +27°C° 0 mm 2 m/s 739 mmHg 54%
    17:00 +26°C° 0 mm 1 m/s 739 mmHg 59%
    18:00 +24°C° 0 mm 1 m/s 739 mmHg 66%
    19:00 +22°C° 0 mm 1 m/s 739 mmHg 72%
    20:00 +20°C° 0 mm 1 m/s 740 mmHg 79%
    21:00 +20°C° 0 mm 1 m/s 740 mmHg 82%
    22:00 +19°C° 0 mm 1 m/s 740 mmHg 85%
    23:00 +19°C° 0 mm 1 m/s 740 mmHg 88%
    Voir plus